Погода в Алдане

Хотите узнать прогноз погоды в Алдане? Тогда Вам сюда: Погода в Алдане

Поиск расширенной информации на нашем сайте:

Полезная информация:

Новости сайта



02.01.2020
Опубликован Долгосрочный прогноз погоды по городам России и ближнего зарубежья на январь 2020 года.
Карты: Прогноз на январь и февраль 2020 года, Сравнение прогнозируемой аномалии приземной температуры воздуха на январь 2020 года по разным моделям.




Погода в Алдане - сегодня

Время (UTC), дата Ветер
(°,м/с) 
Видим.   Явления Облачность Т
(°С)
Тd
(°С)
f(%) Тe
(°С)
Pmin
(гПа)
dP
(гПа)
Po
(мм)
O2
(г/м3)
Тmin Tmax R s Состояние
почвы
21 29.11.20 280 (З) 4000 м  слаб. снег  10/0 средняя 
[As op]
-17 -18.2 90 -17  1030.6  0.2  707  305           
00 30.11.20 270 (З) 4000 м  слаб. снег  10/0 средняя 
[As op]
-17 -18.2 90 -19  1030.6  707  305  -17.7    62  равномерный
сухой снег
100% 
03 30.11.20 250 (З) 4000 м  слаб. снег  10/0 средняя 
[As op]
-16.4 -18.3 85 -19  1029.2  -1  706  304           
06 30.11.20 280 (З) 10 км  слаб. снег  10/0 средняя, верхняя 
[Ac trans|Cs]
-16.3 -17.6 90 -20  1028.7  -0.5  705  304           
09 30.11.20 250 (З) 4000 м  слаб. снег  10/0 средняя 
[As op]
-16.9 -18.8 85 -17  1029  0.1  705  304           
12 30.11.20 240 (ЮЗ) 4000 м  слаб. снег  10/0 средняя, верхняя 
[Ac trans|Cs]
-18.2 -20.1 85 -18  1029.7  0.3  706  306    -15.7     
15 30.11.20 240 (ЮЗ) 4000 м  слаб. снег  10/0 средняя, верхняя 
[Ac trans|Cs]
-18.2 -20.1 85 -18  1029.3  -0.4  705  306           
18 30.11.20 220 (ЮЗ) 4000 м  слаб. снег  10/0 средняя, верхняя 
[Ac trans|Cs]
-17.8 -19.7 85 -20  1029  -0.1  705  305           
21 30.11.20 250 (З) 4000 м  слаб. снег  10/0 средняя, верхняя 
[Ac trans|Cs]
-18.4 -20.3 85 -19  1028.4  -0.8  705  306           
00 01.12.20 210 (ЮЗ) 10 км  слаб. снег  10/0 средняя, верхняя 
[Ac trans|Cs]
-18.4 -20.3 85 -19  1027.8  -0.6  704  306  -20    0.9  62  равномерный
сухой снег
100% 
03 01.12.20 270 (З) 10 км  слаб. снег  10/0 средняя, верхняя 
[Ac trans|Cs]
-16.8 -18.7 85 -21  1026.3  -0.8  704  303           
06 01.12.20 240 (ЮЗ) 10 км  слаб. снег  10/0 средняя, верхняя 
[Ac trans|Cs]
-16.4 -18.3 85 -19  1025.2  -0.8  703  303           
09 01.12.20 230 (ЮЗ) 20000 м  позёмок{снег}  8/0 средняя, верхняя 
[Ac trans|Cs]
-17.3 -19.2 85 -22  1025.1  -0.5  703  304           
12 01.12.20 240 (ЮЗ) 10 км  слаб. снег  10/0 средняя, верхняя 
[Ac trans|Cs]
-16.3 -18.2 85 -20  1023.2  -1.4  702  302    -16  0.3     
15 01.12.20 240 (ЮЗ) 10 км  слаб. снег  10/0 средняя, верхняя 
[Ac trans|Cs]
-15.5 -17.4 85 -20  1021.2  -1.5  701  301           
18 01.12.20 200 (Ю) 10 км  слаб. снег  10/0 средняя, верхняя 
[Ac trans|Cs]
-15.1 -17.1 85 -17  1019.8  -1.2  700  300           
21 01.12.20 220 (ЮЗ) 4000 м  слаб. снег  10/0 средняя, верхняя 
[Ac trans|Cs]
-14.8 -16.8 85 -18  1018.4  -1.2  699  299           
00 02.12.20 280 (З) 4000 м  слаб. снег  10/0 средняя, верхняя 
[Ac trans|Cs]
-14.2 -16.2 85 -16  1016.6  -1.4  698  298  -17.2    0.8  61  равномерный
сухой снег
100% 
03 02.12.20 270 (З) 4000 м  слаб. снег  10/0 средняя, верхняя 
[Ac trans|Cs]
-13.4 -15.4 85 -17  1016.5  0.2  698  297           
06 02.12.20 240 (ЮЗ) 4000 м  слаб. снег  10/0 средняя, верхняя 
[Ac trans|Cs]
-14 -16 85 -16  1017.7  0.9  698  298           
09 02.12.20 300 (СЗ) 3{10}  4000 м  слаб. снег  10/0 средняя, верхняя 
[Ac trans|Cs]
-14 -16 85 -18  1017.7  698  298           
12 02.12.20 260 (З) 4000 м  слаб. снег  10/0 средняя, верхняя 
[Ac trans|Cs]
-13.2 -15.2 85 -17  1015.9  -1.5  697  296    -12.9     
15 02.12.20 230 (ЮЗ) 4000 м  слаб. снег  10/0 средняя, верхняя 
[Ac trans|Cs]
-13.2 -15.2 85 -15  1014.7  -1.1  697  296           
18 02.12.20 270 (З) 4000 м  слаб. снег  10/0 средняя, верхняя 
[Ac trans|Cs]
-12.6 -14.6 85 -15  1013.9  -0.5  696  295           
21 02.12.20 300 (СЗ) 4000 м  слаб. снег  10/0 средняя, верхняя 
[Ac trans|Cs]
-12.7 -14.7 85 -15  1013.9  696  295           
Время (UTC), дата Ветер
(°,м/с) 
Видим.   Явления Облачность Т
(°С)
Тd
(°С)
f(%) Тe
(°С)
Pmin
(гПа)
dP
(гПа)
Po
(мм)
O2
(г/м3)
Тmin Tmax R s Состояние
почвы

Для получения пояснительной информации подведите курсор к названию столбца.

ПОГОДА в Алдане - архив

Всё, что Вы хотите узнать о погоде в Алдане - удобно и подробно!

Выберите нужную дату (начиная с 1 января 2019* года) и нажмите кнопку "Найти".
Будут отображены архивные сводки погоды по пункту Алдан, начиная с указанной даты.


Отображать данные в формате CSV (для использования в таблицах Excel)


Внимание! Наш архив погоды предназначен исключительно для личного некоммерческого использования в познавательных целях. Если Вам необходимы официальные справки о состоянии погоды (для производственных, юридических, коммерческих и т.п. целей), обращайтесь в органы Росгидромета.

*Примечание: данная дата относится к архиву по метеостанциям СССР (Россия, СНГ, Балтия).
Архив по метеостанциям Зарубежной Европы и Азии (кроме Китая) хранится 10 дней, по другим регионам земного шара (Китай, Африка, Америка, Австралия, Океания) - 1 день.

Алдан - район местоположения метеостанции


Название, широта, долгота, высота метеостанции:
Алдан 58.6°ш. 125.4°д. 79 м над ур. моря [Российская Федерация]

Дополнительная информация

В oтличие oт бoльшинства пoгoдных сайтoв мы публикуем пoдрoбную метеoинфoрмацию в детальнoм прoфессиoнальнoм фoрмате.

Характеристики температуры и влажнoсти вoздуха измеряются на высoте 2 м в тени вдали oт зданий и деревьев.
Скoрoсть ветра измеряется на высoте 10 м (на урoвне рoста челoвека скoрoсть ветра ниже в 1.5-2 раза). Если метеoстанция нахoдится в гoрoде или в лесу, тo скoрoсть ветра занижена на 2-4 м/с пo сравнению с oткрытым местoм. Скoрoсть ветра над акватoриями крупных рек и oзёр, а также на вершинах хoлмoв на 2-5 м/с выше, чем в oбычных услoвиях.
Атмoсфернoе давление в разных тoчках местнoсти мoжет значительнo oтличаться oт давления на метеoстанции, в зависимoсти oт услoвий рельефа (при пoдъёме на 10 м давление пoнижается примернo на 1 мм рт.ст.).